Location: Hepcat Sky Observatory
(29.9800°N, 95.6500°W)
Time: 05:46:32
(UTC-05:00)

Daily predictions for brighter satellites

Satellite Brightness Start Highest point End
(mag) Time Altitude Azimuth Time Altitude Azimuth Time Altitude Azimuth
Cosmos 1833 Rocket 4.1 00:10:08 33° NNW 00:10:08 33° NNW 00:13:43 10° N
Terra 4.1 00:11:45 20° NW 00:11:45 20° NW 00:13:25 10° NNW
Cosmos 1980 Rocket 4.0 00:36:59 10° N 00:39:36 27° N 00:39:36 27° N
Cosmos 2322 Rocket 4.4 00:45:55 10° NNE 00:48:24 19° NE 00:48:24 19° NE
USA 234 4.2 01:32:59 43° NNE 01:32:59 43° NNE 01:38:25 10° NNW
SL-16 R/B 4.1 01:33:32 10° N 01:35:59 26° N 01:35:59 26° N
Lacrosse 5 4.3 01:57:21 19° NNE 01:57:21 19° NNE 01:58:52 10° NNE
Cosmos 2360 Rocket 3.7 02:19:54 10° N 02:22:59 32° N 02:22:59 32° N
Cosmos 2322 Rocket 4.5 02:29:05 10° NW 02:30:12 16° NW 02:30:12 16° NW
Resurs 1-4 Rocket 4.1 02:43:31 10° NE 02:46:41 21° E 02:46:41 21° E
CZ-2D R/B 4.0 02:47:40 10° NE 02:50:52 22° E 02:50:52 22° E
SL-16 R/B 4.3 02:52:25 18° ESE 02:55:14 26° ENE 03:00:08 10° NNE
Cosmos 2297 Rocket 3.8 02:58:57 25° E 02:58:57 25° E 03:02:49 10° NE
ATLAS 3B CENTAUR R/B 3.5 02:49:01 10° WSW 03:09:14 76° S 03:15:57 10° E
Cosmos 2219 Rocket 3.6 03:06:49 10° N 03:11:56 33° ENE 03:13:56 26° ESE
Cosmos 1140 Rocket 4.3 03:20:46 49° NE 03:20:46 49° NE 03:24:47 10° NNE
CZ-3A R/B 3.7 03:21:54 30° ESE 03:21:54 30° ESE 03:30:47 10° E
Lacrosse 5 rocket 4.2 03:17:40 10° NNW 03:18:04 12° NNW 03:18:04 12° NNW
Cosmos 2237 Rocket 4.3 03:19:41 10° N 03:24:07 23° ENE 03:28:29 10° ESE
ATLAS 2AS CENTAUR R/B 3.7 03:26:44 10° NNW 03:34:23 50° ENE 03:41:22 10° SE
Cosmos 2227 Rocket 2.3 03:35:24 74° NE 03:35:24 74° NE 03:40:38 10° NNE
NOSS 3-3 (A) 4.1 03:35:33 59° NW 03:35:33 59° NW 03:41:43 10° NNE
NOSS 3-3 (C) 4.1 03:35:39 60° NW 03:35:39 60° NW 03:41:49 10° NNE
ARIANE 5 R/B 2.6 03:39:24 10° NNE 03:44:04 71° NE 03:44:04 71° NE
Meteor 1-11 4.2 03:48:29 70° NW 03:48:29 70° NW 03:53:50 10° N
Cosmos 2058 4.3 03:50:53 34° N 03:50:53 34° N 03:53:16 10° N
ADEOS Rocket 3.5 03:45:00 10° N 03:52:28 74° WNW 03:54:18 55° SW
Meteor 1-27 4.3 03:48:21 10° N 03:54:10 76° E 03:55:27 55° SSE
COSMOS 2428 3.5 03:50:12 10° NNW 03:53:57 37° WNW 03:53:57 37° WNW
Sich 1 4.5 03:56:29 30° ESE 03:57:21 32° E 04:01:17 10° NNE
Cosmos 2082 3.6 04:02:06 68° W 04:02:20 69° WNW 04:07:55 10° NNE
DELTA 2 R/B (1) 3.4 04:02:06 79° WSW 04:02:27 88° NNW 04:08:01 10° ENE
Cosmos 2233 Rocket 4.5 04:00:44 10° NNW 04:06:15 41° W 04:06:15 41° W
Cosmos 1072 Rocket 4.3 04:04:25 10° N 04:10:34 88° W 04:12:51 42° S
Lacrosse 4 Rocket 2.9 04:12:55 25° SE 04:13:41 27° ESE 04:17:11 10° NE
Cosmos 1455 2.7 04:10:25 10° N 04:14:13 56° E 04:14:26 55° E
MOZ.5/SAFIR/RUBIN 5/SL-8 4.4 04:15:12 21° SE 04:18:11 55° ENE 04:22:50 10° N
CZ-2D R/B 3.3 04:14:58 10° NNE 04:19:01 80° ESE 04:19:09 78° SE
BREEZE M DEB (TANK) 4.0 04:19:55 28° ESE 04:19:55 28° ESE 04:21:45 10° ENE
Cosmos 1900 4.3 04:19:34 62° W 04:19:58 65° WNW 04:24:54 10° NNE
Cosmos 1151 Rocket 4.4 04:20:28 10° NNW 04:22:47 25° NW 04:22:47 25° NW
Resurs 1-4 Rocket 2.9 04:22:35 10° N 04:27:21 35° WNW 04:27:46 34° W
IRS-1D 4.4 04:23:37 10° N 04:28:23 33° WNW 04:28:48 33° W
APEX 4.3 04:26:24 41° S 04:28:30 81° ESE 04:35:15 10° NNE
Cosmos 2333 Rocket 2.2 04:23:39 10° NNW 04:29:15 58° WSW 04:31:07 39° SSW
GOES 2 Rocket 4.3 04:27:29 37° WSW 04:30:45 66° S 04:37:03 10° E
Cosmos 1707 Rocket 3.9 04:26:33 10° N 04:30:53 63° E 04:33:29 23° SSE
CZ-2D R/B 2.9 04:27:12 10° N 04:31:45 32° WNW 04:32:11 31° W
CZ-3 R/B 4.0 03:38:14 10° W 04:31:55 86° S 04:42:14 10° E
UNKNOWN OBJECT B 3.0 04:28:15 10° N 04:32:06 54° WNW 04:32:06 54° WNW
Cosmos 1464 Rocket 3.9 04:27:05 10° NNW 04:33:08 61° W 04:35:45 34° SSW
SL-16 R/B 2.9 04:37:30 36° WSW 04:38:33 39° W 04:44:15 10° NNW
Cosmos 1666 Rocket 3.4 04:38:04 52° SW 04:39:00 70° W 04:43:25 10° N
MOS 1 Rocket 3.6 04:36:56 10° N 04:42:01 65° WNW 04:44:10 35° SW
Cosmos 2297 Rocket 3.1 04:40:46 29° W 04:42:04 32° WNW 04:47:04 10° N
ADEOS II 3.1 04:38:11 10° NNE 04:43:11 43° E 04:48:08 10° S
Cosmos 1980 3.8 04:42:45 10° NNW 04:48:15 52° WSW 04:52:49 15° S
Cosmos 1626 4.4 04:49:54 13° NW 04:49:54 13° NW 04:50:46 10° NW
MOS 1-B 4.3 04:43:03 10° NNE 04:48:51 87° WNW 04:52:43 22° SSW
FUSE 4.2 04:50:18 35° SW 04:52:05 48° S 04:57:11 10° ESE
Cosmos 2219 Rocket 3.2 04:51:06 10° NW 04:55:32 25° W 04:55:32 25° W
Aureole 2 Rocket 3.4 04:52:22 10° NW 04:56:08 37° WSW 04:56:29 36° WSW
GPS 2-04 Rocket1 4.0 04:54:10 12° WNW 04:57:44 40° N 05:01:48 10° ENE
CZ-3B DEB 4.5 04:47:40 24° SW 04:57:56 80° NW 05:12:39 10° NE
Hubble Space Telescope 1.3 04:58:41 35° SW 04:59:18 38° SSW 05:03:09 10° SE
Okean O Rocket 2.1 04:56:02 10° NNE 05:00:20 58° E 05:04:18 12° S
Cosmos 2227 4.4 04:58:35 16° S 05:03:10 74° ESE 05:08:55 10° NNE
GP-B 4.2 04:58:56 10° NNE 05:03:11 43° E 05:07:23 10° SSE
Meteosat 1 Rocket2 3.8 05:03:56 25° SSW 05:04:59 29° SSE 05:08:10 10° E
SL-16 R/B 2.4 05:00:31 10° NNW 05:06:12 77° ENE 05:11:51 10° SSE
CZ-4B R/B 3.2 05:01:49 10° NNE 05:06:14 75° ESE 05:09:57 13° S
Cosmos 1400 Rocket 3.9 05:03:13 10° SSE 05:06:52 42° E 05:10:34 10° NNE
Cosmos 2237 Rocket 2.7 05:03:04 10° NW 05:08:10 36° WSW 05:13:15 10° S
CZ-4B R/B 3.6 05:03:23 10° NNE 05:08:38 60° ESE 05:13:56 10° S
Tiangong 2 3.4 05:12:52 12° S 05:12:52 12° S 05:13:15 10° SSE
USA 161 3.4 05:13:31 12° NW 05:13:31 12° NW 05:13:43 10° NW
Cosmos 1570 Rocket 4.4 05:11:06 10° NNW 05:16:09 44° W 05:21:09 10° S
CZ-4B DEB 4.3 05:11:28 10° NNE 05:16:56 76° ESE 05:22:23 10° S
ISS -0.8 05:15:33 10° N 05:18:00 19° NE 05:20:25 10° E
Cosmos 2227 Rocket 4.3 05:17:56 10° WNW 05:19:34 11° WNW 05:21:14 10° NW
Cosmos 1470 Rocket 3.7 05:19:48 15° SSW 05:23:13 53° W 05:27:27 10° N
ATLAS 5 CENTAUR R/B 3.2 05:20:39 10° S 05:24:43 33° ESE 05:28:59 10° NE
ATLAS 2AS CENTAUR R/B 3.7 05:18:39 10° NW 05:24:52 27° WSW 05:30:40 10° SSW
Cosmos 1633 Rocket 4.4 05:25:57 17° WSW 05:27:44 21° WNW 05:31:06 10° NNW
PAYLOAD B 4.2 05:22:52 10° N 05:28:22 76° WNW 05:33:49 10° SSW
OAO 3 Rocket 4.1 05:25:24 15° SW 05:29:06 38° SSE 05:33:38 10° E
Meteor 1-31 Rocket 4.3 05:27:22 10° NNE 05:31:02 37° E 05:34:40 10° SSE
Cosmos 1869 4.5 05:29:28 10° NW 05:32:43 24° W 05:35:20 13° SW
USA 215 3.3 05:29:08 10° NE 05:35:39 73° NW 05:42:03 10° SW
Cosmos 1892 2.8 05:34:48 10° S 05:38:34 77° E 05:42:21 10° N
BREEZE-M R/B 3.9 05:34:33 13° WSW 05:40:40 46° NW 05:44:14 10° NNE
Meteor PRIRODA 3.6 05:42:25 10° NNE 05:46:03 87° E 05:49:42 10° S
EO 1 Del DPAF 3.6 05:43:29 10° SSE 05:47:17 71° ENE 05:51:07 10° N
Cosmos 2263 Rocket 2.9 05:41:58 10° S 05:47:23 55° ESE 05:52:48 10° NNE
ERS-2 4.5 05:46:43 10° NE 05:49:48 25° E 05:52:52 10° SSE
Cosmos 2242 Rocket 4.5 05:46:51 10° NNW 05:50:44 30° W 05:54:39 10° SSW
Lacrosse 4 Rocket 3.2 05:49:35 10° WSW 05:52:21 17° WNW 05:55:10 10° NNW
ATLAS 3B CENTAUR R/B 1.9 05:45:58 10° W 05:53:33 56° SSW 05:56:43 10° ESE
Cosmos 1315 Rocket 2.8 05:52:05 10° S 05:56:10 82° W 06:00:14 10° N
